Weather in Ilek

Russia / Chelyabinsk Oblast     55°13′43″N   58°00′04″E
temp.,
°C
wind,
m/s
gust,
m/s
humid.,
%
clouds,
%
prec.,
mm/h
press.,
hPa
HPBL,
m
6 may, thu
thu623:00+6w511705 0.4 1007826
02:00+4wsw512828 0.0 1009730
05:00+3wsw5128716 0.0 1011567
08:00+5wsw7127711 0.0 1013964
11:00+7w8116597 0.1 10141377
14:00+11wnw711487 0.0 10151683
17:00+11w795488 0.0 10161710
20:00+9w486688 0.0 1018645
7 may, fri
fri723:00+6wsw22795 0.0 101916
02:00+5ssw22895 0.0 102119
05:00+4ssw22906 0.0 102213
08:00+9ssw22735 0.0 1022183
11:00+14sw225526 0.0 10211054
14:00+18s124372 0.0 10202055
17:00+15wnw455699 0.0 1020690
20:00+14nnw116397 0.0 101912
8 may, sat
sat823:00+12wnw1166100 0.0 102010
02:00+11w116899 0.0 102010
05:00+9nw1169100 0.0 102010
08:00+12ene1164100 0.0 102091
11:00+16ne2252100 0.0 1020833
14:00+18ne2241100 0.0 10192251
17:00+15e3557100 0.0 1019363
20:00+14n1159100 0.0 101811
9 may, sun
sun923:00+11nnw2171100 0.1 101911
02:00+11nne1272100 0.0 101911
05:00+9nne1174100 0.0 101910
08:00+12ene126331 0.0 1019165
11:00+17ene33465 0.0 1019979
14:00+19ne343890 0.0 10182238
17:00+19ene43379 0.0 10182263
20:00+15nne22586 0.0 101918
10 may, mon
mon1023:00+12ene22635 0.0 102010
02:00+10e01685 0.0 102110
05:00+9ene11715 0.0 102210
08:00+13e11618 0.0 1023152
11:00+18ene214842 0.0 1023868
14:00+21ne1138100 0.0 10221976
17:00+21ne2237100 0.0 10221683
20:00+17wnw2253100 0.0 102230